KF5CFW Weather Reports


time (UTC)temp
C
wind
direction
speed
KPH
gust
KPH
rain 1hr
cm
rain 24hr
cm
rain mn
cm
humidity
%
barometer
mb
20260903143029 27 158 0.0 1.6 0.00 0.00 0.00 7 1012.4
20260903141524 27 167 0.0 1.6 0.00 0.00 0.00 5 1012.1
20260903140021 26 168 0.0 1.6 0.00 0.00 0.00 1 1012.1
20260903134517 26 108 0.0 0.0 0.00 0.00 0.00 1 1012.1
20260903133012 26 152 0.0 1.6 0.00 0.00 0.00 1 1012.0
20260903131511 25 143 0.0 0.0 0.00 0.00 0.00 1 1011.9
20260903130008 25 102 0.0 1.6 0.00 0.00 0.00 1 1011.9
20260903124504 25 101 0.0 1.6 0.00 0.00 0.00 1 1012.0
20260903123059 25 50 0.0 0.0 0.00 0.00 0.00 1 1011.7
20260903121554 25 49 0.0 1.6 0.00 0.00 0.00 1 1011.7
20260903120049 25 113 0.0 0.0 0.00 0.00 0.00 1 1011.5
20260903114546 25 113 0.0 0.0 0.00 0.00 0.00 3 1011.4
20260903113043 25 112 0.0 0.0 0.00 0.00 0.00 6 1011.4
20260903111614 25 111 0.0 1.6 0.00 0.00 0.00 8 1011.5
20260903110043 25 113 0.0 0.0 0.00 0.00 0.00 8 1011.3
20260903104553 25 113 0.0 0.0 0.00 0.00 0.00 9 1011.2
20260903103041 25 113 0.0 0.0 0.00 0.00 0.00 9 1011.2
20260903101545 25 113 0.0 0.0 0.00 0.00 0.00 8 1011.1
20260903100039 25 113 0.0 0.0 0.00 0.00 0.00 9 1011.1
20260903094539 25 113 0.0 0.0 0.00 0.00 0.00 11 1011.1
20260903093041 25 113 0.0 0.0 0.00 0.00 0.00 14 1011.1
20260903091534 25 113 0.0 0.0 0.00 0.00 0.00 21 1011.0
20260903090033 25 113 0.0 0.0 0.00 0.00 0.00 22 1011.0
20260903084535 25 113 0.0 0.0 0.00 0.00 0.00 25 1011.2
20260903083029 25 113 0.0 0.0 0.00 0.00 0.00 28 1011.2
20260903081527 26 113 0.0 0.0 0.00 0.00 0.00 34 1011.0
20260903080024 26 113 0.0 0.0 0.00 0.00 0.00 36 1011.0
20260903074523 26 113 0.0 0.0 0.00 0.00 0.00 38 1011.1
20260903073035 26 113 0.0 0.0 0.00 0.00 0.00 39 1011.2
20260903071521 26 113 0.0 0.0 0.00 0.00 0.00 41 1011.2
20260903070023 26 113 0.0 0.0 0.00 0.00 0.00 46 1011.1
20260903064517 26 113 0.0 0.0 0.00 0.00 0.00 48 1011.0
20260903063013 27 113 0.0 1.6 0.00 0.00 0.00 49 1011.4
20260903061528 27 113 0.0 0.0 0.00 0.00 0.00 52 1011.4
20260903060008 27 139 0.0 0.0 0.00 0.00 0.00 54 1011.6
20260903054507 27 91 0.0 1.6 0.00 0.00 0.00 57 1011.7
20260903053005 27 188 0.0 1.6 0.00 0.00 0.00 58 1011.8
20260903051502 28 56 0.0 1.6 0.00 0.00 0.00 59 1011.7
20260903050106 28 143 0.0 1.6 0.00 0.00 0.00 59 1011.5
20260903044608 28 148 0.0 1.6 0.00 0.00 0.00 60 1011.4
20260903043103 28 106 0.0 0.0 0.00 0.00 0.00 60 1011.4
20260903041600 28 134 0.0 0.0 0.00 0.00 0.00 60 1011.3
20260903040107 29 134 0.0 1.6 0.00 0.00 0.00 60 1011.6
20260903034558 30 65 0.0 1.6 0.00 0.00 0.00 59 1011.4
20260903033057 30 103 0.0 1.6 0.00 0.00 0.00 59 1011.2
20260903031600 30 146 0.0 1.6 0.00 0.00 0.00 58 1011.2
20260903030112 31 51 0.0 3.2 0.00 0.00 0.00 57 1011.1
20260903024556 31 145 0.0 1.6 0.00 0.00 0.00 56 1010.9
20260903023056 31 92 0.0 1.6 0.00 0.00 0.00 54 1010.7
20260903021555 32 115 0.0 1.6 0.00 0.00 0.00 52 1010.5
20260903020055 32 141 0.0 1.6 0.00 0.00 0.00 52 1010.2
20260903014600 32 159 0.0 1.6 0.00 0.00 0.00 52 1010.1
20260903013053 33 148 0.0 1.6 0.00 0.00 0.00 51 1009.9
20260903011606 33 121 0.0 1.6 0.00 0.00 0.00 50 1009.9
20260903010111 33 203 0.0 1.6 0.00 0.00 0.00 49 1009.6
20260903004551 34 233 0.0 1.6 0.00 0.00 0.00 48 1009.6
20260903003053 34 92 0.0 1.6 0.00 0.00 0.00 45 1009.6
20260903001550 35 117 0.0 3.2 0.00 0.00 0.00 45 1009.5
20260903000050 35 56 0.0 3.2 0.00 0.00 0.00 44 1009.5
20260902234554 36 85 0.0 0.0 0.00 0.00 0.00 39 1009.2
20260902233049 37 129 0.0 1.6 0.00 0.00 0.00 37 1009.2
20260902231606 37 155 0.0 1.6 0.00 0.00 0.00 37 1009.1
20260902230047 38 146 0.0 1.6 0.00 0.00 0.00 36 1009.2
20260902224558 38 137 0.0 1.6 0.00 0.00 0.00 34 1009.2
20260902223052 39 122 0.0 1.6 0.00 0.00 0.00 34 1009.2
20260902221557 38 183 0.0 1.6 0.00 0.00 0.00 35 1009.3
20260902220055 38 34 0.0 1.6 0.00 0.00 0.00 36 1009.6
20260902214541 38 22 0.0 1.6 0.00 0.00 0.00 36 1009.6
20260902213041 38 302 0.0 1.6 0.00 0.00 0.00 36 1009.7
20260902211538 39 23 0.0 3.2 0.00 0.00 0.00 35 1010.0
20260902210042 39 40 0.0 3.2 0.00 0.00 0.00 35 1010.2
20260902204534 38 99 0.0 3.2 0.00 0.00 0.00 37 1010.3
20260902203034 38 356 0.0 1.6 0.00 0.00 0.00 35 1010.5
20260902201542 38 356 0.0 1.6 0.00 0.00 0.00 35 1010.7
20260902200027 38 40 0.0 1.6 0.00 0.00 0.00 37 1010.9
20260902194532 38 6 0.0 3.2 0.00 0.00 0.00 38 1011.2
20260902193038 38 101 0.0 1.6 0.00 0.00 0.00 39 1011.3
20260902191520 37 23 0.0 1.6 0.00 0.00 0.00 40 1011.8
20260902190018 37 1 0.0 1.6 0.00 0.00 0.00 39 1011.9
20260902184517 37 77 0.0 3.2 0.00 0.00 0.00 39 1012.1
20260902183018 37 307 0.0 3.2 0.00 0.00 0.00 41 1012.3
20260902181510 37 67 0.0 1.6 0.00 0.00 0.00 40 1012.7
20260902180007 36 350 0.0 1.6 0.00 0.00 0.00 42 1013.0
20260902174503 36 84 0.0 1.6 0.00 0.00 0.00 43 1013.3
20260902173003 36 135 0.0 1.6 0.00 0.00 0.00 43 1013.5
20260902171604 36 221 0.0 3.2 0.00 0.00 0.00 43 1013.8
20260902170057 35 4 0.0 1.6 0.00 0.00 0.00 44 1014.0
20260902164552 35 41 0.0 1.6 0.00 0.00 0.00 47 1014.1
20260902163057 34 123 0.0 1.6 0.00 0.00 0.00 48 1014.2
20260902161543 33 134 0.0 1.6 0.00 0.00 0.00 50 1014.4
20260902160039 32 17 0.0 1.6 0.00 0.00 0.00 51 1014.4
20260902154537 32 103 0.0 1.6 0.00 0.00 0.00 53 1014.4
20260902153046 31 33 0.0 1.6 0.00 0.00 0.00 54 1014.4
20260902151529 31 150 0.0 1.6 0.00 0.00 0.00 57 1014.4
20260902150031 31 151 0.0 0.0 0.00 0.00 0.00 58 1014.4
20260902144527 30 126 0.0 1.6 0.00 0.00 0.00 58 1014.4